Regional Weather Roundup
Issued by NWS Green Bay, WI

Home | Current Version | Previous Version | Graphics & Text | Print | Product List | Glossary Off
Versions: 1 2 3 4 5 6 7 8 9 10 11 12 13 14 15 16 17 18 19 20 21 22 23 24 25 26 27 28 29 30 31 32 33 34 35 36 37 38 39 40 41 42 43 44 45 46 47 48 49 50

000
ASUS43 KGRB 101911
RWRGRB

NORTH-CENTRAL AND NORTHEAST WISCONSIN REGIONAL WEATHER ROUNDUP
NATIONAL WEATHER SERVICE GREEN BAY WI
100 PM CST WED FEB 10 2016

WIZ005-009-010>012-018-019-102000-
NORTH CENTRAL WISCONSIN

CITY           SKY/WX    TMP DP  RH WIND       PRES   REMARKS
IRONWOOD       CLOUDY     9   0  66 N7        30.01F WCI  -3
MANITOWISH WTR CLOUDY     8  -4  58 NW12G17   29.98S WCI  -8
ARBOR VITAE    PTSUNNY   10  -2  59 N14       29.97F WCI  -6
EAGLE RIVER    LGT SNOW   7  -5  58 NW9       29.95F WCI  -7
LAND O LAKES   CLOUDY     8  -3  61 NW13G18   29.97S HAZE    WCI  -8
RHINELANDER    MIX PCPN   8  -6  52 N8G17     29.96F WCI  -4
PHILLIPS       CLOUDY     7  -4  61 N6        30.00S WCI  -3
ANTIGO         SUNNY      8  -5  55 N12       29.95F WCI  -7
TOMAHAWK       PTSUNNY    9  -4  56 N8        29.99F WCI  -3
MERRILL        MOSUNNY   11  -5  50 NW9G16    29.99F WCI  -2
$$

WIZ013-073-102000-
NORTHEAST WISCONSIN

CITY           SKY/WX    TMP DP  RH WIND       PRES   REMARKS
IRON MOUNTAIN  PTSUNNY    9  -5  53 N15G23    29.96R WCI  -8
MARINETTE      MOSUNNY   14  -6  41 N15G21    29.98S WCI  -1
OCONTO         SUNNY     13  -5  45 NW8       30.01S WCI   2
$$

WIZ017-030-035>037-045-102000-
CENTRAL WISCONSIN

CITY           SKY/WX    TMP DP  RH WIND       PRES   REMARKS
MEDFORD        PTSUNNY    9  -3  58 N8        29.98F WCI  -4
WAUSAU         PTSUNNY   11  -3  53 NW12G17   29.99S WCI  -3
MOSINEE        PTSUNNY   10  -2  56 N6        30.01S WCI   1
MARSHFIELD     PTSUNNY    9  -4  55 NW8       30.00F WCI  -3
WISC RAPIDS    MOSUNNY   10  -4  53 N13       30.04S WCI  -5
STEVENS POINT  PTSUNNY    9  -3  57 NW6G17    30.01S WCI  -1
WAUPACA        MOSUNNY   16  -4  39 NW9       30.02S WCI   5
SHAWANO        SUNNY     15  -4  41 N9        30.01F WCI   4
CLINTONVILLE   SUNNY     14  -6  41 N8        30.01S WCI   3
WAUTOMA        PTSUNNY   11  -2  56 N9        30.03F WCI  -2
$$

WIZ038-039-048-051-102000-
FOX VALLEY

CITY           SKY/WX    TMP DP  RH WIND       PRES   REMARKS
NWS GREEN BAY  SUNNY     11  -4  51 NW14G22   30.01S WCI  -5
APPLETON       MOSUNNY   12  -6  44 NW17      29.99F WCI  -5
OSHKOSH        PTSUNNY   12  -3  51 NW9       30.01S WCI   0
FOND DU LAC    PTSUNNY   12  -2  53 N13       30.01S WCI  -3
$$

WIZ022-050-052-102000-
EAST CENTRAL WISCONSIN

CITY           SKY/WX    TMP DP  RH WIND       PRES   REMARKS
EPHRAIM        MOCLDY    14  -3  46 N13G23    29.94F WCI   0
STURGEON BAY   SUNNY     12  -6  44 NW15G21   29.99S WCI  -4
MANITOWOC      SUNNY     13  -1  54 NW14      30.01R WCI  -2
SHEBOYGAN      SUNNY     12  -3  51 NW13      30.00R WCI  -3
$$

LMZ563-521-522-541>543-102000-
LAKESHORE

STATION/POSITION TIME  TEMP    WIND        PRES    VSBY  WAVE
                       AIR SEA DIR/SP/G                  HT/PER
                 (UTC) (F)     (DEG/KT/KT) (MB)    (MI)  (FT/S)
SHEBOYGAN LKSHOR 1900   11     310/ 15/ 18 1017.6R
KEWAUNEE LKSHORE 1800   11     310/ 13/ 18 1014.9F
ALGOMA MARINA    1841          320/ 15/ 20   N/A
CHAMBERS ISLAND  1800   15     310/ 15/ 19 1015.2S
MENOMINEE LKSHOR 1800   12     310/ 14     1014.4F
$$



USA.gov is the U.S. government's official web portal to all federal, state and local government web resources and services.